QPF
0.00 0.00 0.00 0.00 0.00 0.00 0.00 0.00 0.00 0.00 0.00 0.00 0.00 0.00 0.00 0.00 0.00 0.00 0.00 0.00 0.00 0.00 0.00 0.00 0.00 0.00 0.00 0.00 0.00 0.00 0.00 0.00 0.00 0.00 0.00 0.00 0.00 0.00 0.00 0.00 0.00 0.00 0.00 0.00 0.00
0.00 0.00 0.00 0.00 0.00 0.00 0.00 0.00 0.00 0.00 0.00 0.00 0.00 0.00 0.00 0.00 0.00 0.00 0.00 0.00 0.00 0.00 0.00 0.00 0.00 0.00 0.00 0.00 0.00 0.00 0.00 0.00 0.00 0.00 0.00 0.00 0.00 0.00 0.00 0.00 0.00 0.00 0.00 0.00 0.00
0.00 0.00 0.00 0.00 0.00 0.00 0.00 0.00 0.00 0.00 0.00 0.00 0.00 0.00 0.00 0.00 0.00 0.00 0.00 0.00 0.00 0.00 0.00 0.00 0.00 0.00 0.00 0.00 0.00 0.00 0.00 0.00 0.00 0.00 0.00 0.00 0.00 0.00 0.00 0.00 0.00 0.00 0.00 0.00 0.00
0.00 0.00 0.00 0.00 0.00 0.00 0.00 0.00 0.00 0.00 0.00 0.00 0.00 0.00 0.00 0.00 0.00 0.00 0.00 0.00 0.00 0.00 0.00 0.00 0.00 0.00 0.00 0.00 0.00 0.00 0.00 0.00 0.00 0.00 0.00 0.00 0.00 0.00 0.00 0.00 0.00 0.00 0.00 0.00 0.00
0.00 0.00 0.00 0.00 0.00 0.00 0.00 0.00 0.00 0.00 0.00 0.00 0.00 0.00 0.00 0.00 0.00 0.00 0.00 0.00 0.00 0.00 0.00 0.00 0.00 0.00 0.00 0.00 0.00 0.00 0.00 0.00 0.00 0.00 0.00 0.00 0.00 0.00 0.00 0.00 0.00 0.00 0.00 0.00 0.00
0.00 0.00 0.00 0.00 0.00 0.00 0.00 0.00 0.00 0.00 0.00 0.00 0.00 0.00 0.00 0.00 0.00 0.00 0.00 0.00 0.00 0.00 0.00 0.00 0.00 0.00 0.00 0.00 0.00 0.00 0.00 0.00 0.00 0.00 0.00 0.00 0.00 0.00 0.00 0.00 0.00 0.00 0.00 0.00 0.00
0.00 0.00 0.00 0.00 0.00 0.00 0.00 0.00 0.00 0.00 0.00 0.00 0.00 0.00 0.00 0.00 0.00 0.00 0.00 0.00 0.00 0.00 0.00 0.00 0.00 0.00 0.00 0.00 0.00 0.00 0.00 0.00 0.00 0.00 0.00 0.00 0.00 0.00 0.00 0.00 0.00 0.00 0.00 0.00 0.00
0.00 0.00 0.00 0.00 0.00 0.00 0.00 0.00 0.00 0.00 0.00 0.00 0.00 0.00 0.00 0.00 0.00 0.00 0.00 0.00 0.00 0.00 0.00 0.00 0.00 0.00 0.00 0.00 0.00 0.00 0.00 0.00 0.00 0.00 0.00 0.00 0.00 0.00 0.00 0.00 0.00 0.00 0.00 0.00 0.00
0.00 0.00 0.00 0.00 0.00 0.00 0.00 0.00 0.00 0.00 0.00 0.00 0.00 0.00 0.00 0.00 0.00 0.00 0.00 0.00 0.00 0.00 0.00 0.00 0.00 0.00 0.00 0.00 0.00 0.00 0.00 0.00 0.00 0.00 0.00 0.00 0.00 0.00 0.00 0.00 0.00 0.00 0.00 0.00 0.00
0.00 0.00 0.00 0.00 0.00 0.00 0.00 0.00 0.00 0.00 0.00 0.00 0.00 0.00 0.00 0.00 0.00 0.00 0.00 0.00 0.00 0.00 0.00 0.00 0.00 0.00 0.00 0.00 0.00 0.00 0.00 0.00 0.00 0.00 0.00 0.00 0.00 0.00 0.00 0.00 0.00 0.00 0.00 0.00 0.00
0.00 0.00 0.00 0.00 0.00 0.00 0.00 0.00 0.00 0.00 0.00 0.00 0.00 0.00 0.00 0.00 0.00 0.00 0.00 0.00 0.00 0.00 0.00 0.00 0.00 0.00 0.00 0.00 0.00 0.00 0.00 0.00 0.00 0.00 0.00 0.00 0.00 0.00 0.00 0.00 0.00 0.00 0.00 0.00 0.00
0.00 0.00 0.00 0.00 0.00 0.00 0.00 0.00 0.00 0.00 0.00 0.00 0.00 0.00 0.00 0.00 0.00 0.00 0.00 0.00 0.00 0.00 0.00 0.00 0.00 0.00 0.00 0.00 0.00 0.00 0.00 0.00 0.00 0.00 0.00 0.00 0.00 0.00 0.00 0.00 0.00 0.00 0.00 0.00 0.00
0.00 0.00 0.00 0.01 0.00 0.00 0.00 0.00 0.00 0.00 0.00 0.00 0.00 0.00 0.00 0.00 0.00 0.00 0.00 0.00 0.00 0.00 0.00 0.00 0.00 0.00 0.00 0.00 0.00 0.00 0.00 0.00 0.00 0.00 0.00 0.00 0.00 0.00 0.00 0.00 0.00 0.00 0.00 0.00 0.00
0.01 0.00 0.00 0.01 0.01 0.00 0.00 0.00 0.00 0.00 0.00 0.00 0.00 0.00 0.00 0.00 0.00 0.00 0.00 0.00 0.00 0.00 0.00 0.00 0.00 0.00 0.00 0.00 0.00 0.00 0.00 0.00 0.00 0.00 0.00 0.00 0.00 0.00 0.00 0.00 0.00 0.00 0.00 0.00 0.00
0.01 0.00 0.00 0.01 0.00 0.00 0.00 0.00 0.00 0.00 0.00 0.00 0.00 0.00 0.00 0.00 0.00 0.00 0.00 0.00 0.00 0.00 0.00 0.00 0.00 0.00 0.00 0.00 0.00 0.00 0.00 0.00 0.00 0.00 0.00 0.00 0.00 0.00 0.00 0.00 0.00 0.00 0.00 0.00 0.00
0.01 0.00 0.00 0.01 0.00 0.00 0.00 0.00 0.00 0.00 0.00 0.00 0.00 0.00 0.00 0.00 0.00 0.00 0.00 0.00 0.00 0.00 0.00 0.00 0.00 0.00 0.00 0.00 0.00 0.00 0.00 0.00 0.00 0.00 0.00 0.00 0.00 0.00 0.00 0.00 0.00 0.00 0.00 0.00 0.00
0.00 0.00 0.00 0.00 0.00 0.00 0.00 0.01 0.02 0.00 0.00 0.00 0.00 0.00 0.00 0.00 0.00 0.00 0.00 0.00 0.00 0.00 0.00 0.00 0.00 0.00 0.00 0.00 0.00 0.00 0.00 0.00 0.00 0.00 0.00 0.00 0.00 0.00 0.00 0.00 0.00 0.00 0.00 0.00 0.00
0.00 0.00 0.00 0.00 0.00 0.00 0.02 0.05 0.01 0.00 0.00 0.00 0.00 0.00 0.00 0.00 0.00 0.00 0.00 0.00 0.00 0.00 0.00 0.00 0.00 0.00 0.00 0.00 0.00 0.00 0.00 0.00 0.00 0.00 0.00 0.00 0.00 0.00 0.00 0.00 0.00 0.00 0.00 0.00 0.00
0.00 0.01 0.00 0.00 0.00 0.01 0.03 0.01 0.00 0.00 0.00 0.00 0.00 0.00 0.00 0.00 0.00 0.00 0.00 0.00 0.00 0.00 0.00 0.00 0.00 0.00 0.00 0.00 0.00 0.00 0.00 0.00 0.00 0.00 0.00 0.00 0.00 0.00 0.00 0.00 0.00 0.00 0.00 0.00 0.00
0.01 0.01 0.00 0.00 0.00 0.01 0.01 0.00 0.00 0.00 0.00 0.00 0.00 0.00 0.00 0.00 0.00 0.00 0.00 0.00 0.00 0.00 0.00 0.00 0.00 0.00 0.00 0.00 0.00 0.00 0.00 0.00 0.00 0.00 0.00 0.00 0.00 0.00 0.00 0.00 0.00 0.00 0.00 0.00 0.00
0.01 0.01 0.00 0.01 0.01 0.01 0.00 0.00 0.00 0.00 0.00 0.00 0.00 0.00 0.00 0.00 0.00 0.00 0.00 0.00 0.00 0.00 0.00 0.00 0.00 0.00 0.00 0.00 0.00 0.00 0.00 0.00 0.00 0.00 0.00 0.00 0.00 0.00 0.00 0.00 0.00 0.00 0.00 0.00 0.00
0.02 0.01 0.04 0.02 0.02 0.00 0.00 0.00 0.00 0.00 0.00 0.00 0.00 0.00 0.00 0.00 0.00 0.00 0.00 0.00 0.00 0.00 0.00 0.00 0.00 0.00 0.00 0.00 0.00 0.00 0.00 0.00 0.00 0.00 0.00 0.00 0.00 0.00 0.00 0.00 0.00 0.00 0.00 0.00 0.00
0.03 0.01 0.11 0.08 0.02 0.00 0.00 0.00 0.00 0.00 0.00 0.00 0.00 0.00 0.00 0.00 0.00 0.00 0.00 0.00 0.00 0.00 0.00 0.00 0.00 0.00 0.00 0.00 0.00 0.00 0.00 0.00 0.00 0.00 0.00 0.00 0.00 0.00 0.00 0.00 0.00 0.00 0.00 0.00 0.00
0.03 0.03 0.03 0.08 0.05 0.02 0.00 0.00 0.00 0.00 0.00 0.00 0.00 0.00 0.00 0.00 0.00 0.00 0.00 0.00 0.00 0.00 0.00 0.00 0.00 0.00 0.00 0.00 0.00 0.00 0.00 0.00 0.00 0.00 0.00 0.00 0.00 0.00 0.00 0.00 0.00 0.00 0.00 0.00 0.00
0.04 0.02 0.02 0.01 0.01 0.01 0.01 0.00 0.00 0.00 0.00 0.00 0.00 0.00 0.00 0.00 0.00 0.00 0.00 0.00 0.00 0.00 0.00 0.00 0.00 0.00 0.00 0.00 0.00 0.00 0.00 0.00 0.00 0.00 0.00 0.00 0.00 0.00 0.00 0.00 0.00 0.00 0.00 0.00 0.00
0.03 0.02 0.01 0.00 0.00 0.00 0.00 0.00 0.00 0.00 0.00 0.00 0.00 0.00 0.00 0.00 0.00 0.00 0.00 0.00 0.00 0.00 0.00 0.00 0.00 0.00 0.00 0.00 0.00 0.00 0.00 0.00 0.00 0.00 0.00 0.00 0.00 0.00 0.00 0.00 0.00 0.00 0.00 0.00 0.00
0.01 0.00 0.00 0.00 0.00 0.00 0.00 0.00 0.00 0.00 0.00 0.00 0.00 0.00 0.00 0.00 0.00 0.00 0.00 0.00 0.00 0.00 0.00 0.00 0.00 0.00 0.00 0.00 0.00 0.00 0.00 0.00 0.00 0.00 0.00 0.00 0.00 0.00 0.00 0.00 0.00 0.00 0.00 0.00 0.00
MSLP
1018.03 1018.12 1018.12 1018.19 1018.10 1018.01 1017.92 1017.81 1017.71 1017.50 1017.18 1016.86 1016.65 1016.41 1016.10 1015.77 1015.08 1015.10 1014.50 1014.64 1014.35 1014.24 1014.22 1013.57 1013.20 1012.90 1012.72 1012.79 1013.00 1012.96 1012.95 1012.33 1011.89 1011.93 1012.41 1012.78 1013.15 1013.56 1013.90 1014.45 1015.60 1016.59 1017.45 1018.33 1018.51
1018.28 1018.29 1018.26 1018.27 1018.28 1018.16 1018.05 1017.89 1017.71 1017.39 1017.13 1016.88 1016.65 1016.39 1016.07 1015.79 1015.21 1014.64 1014.69 1014.40 1014.29 1014.29 1014.22 1013.67 1013.05 1012.92 1012.74 1012.93 1013.01 1013.01 1012.92 1012.66 1012.32 1012.21 1012.53 1013.02 1013.25 1013.80 1014.33 1015.05 1016.42 1017.46 1018.16 1018.45 1018.62
1018.38 1018.41 1018.34 1018.40 1018.34 1018.22 1018.05 1017.89 1017.62 1017.46 1017.17 1017.01 1016.68 1016.26 1015.95 1015.84 1015.30 1014.71 1014.52 1014.43 1014.44 1014.44 1014.14 1013.75 1013.34 1013.09 1012.85 1013.09 1013.11 1013.09 1013.20 1013.05 1013.02 1013.16 1013.09 1013.37 1013.75 1013.83 1014.65 1015.58 1016.58 1017.16 1018.24 1018.79 1019.16
1018.40 1018.50 1018.41 1018.36 1018.30 1018.17 1018.09 1017.99 1017.79 1017.48 1017.28 1016.95 1016.68 1016.16 1015.70 1015.51 1015.43 1014.77 1014.59 1014.48 1014.55 1014.47 1014.04 1013.65 1013.45 1013.19 1013.13 1013.20 1013.38 1013.77 1013.46 1013.53 1013.64 1013.97 1013.92 1014.01 1014.06 1014.59 1015.17 1016.63 1017.19 1017.63 1018.27 1019.00 1019.67
1018.40 1018.50 1018.51 1018.42 1018.34 1018.34 1018.22 1018.09 1017.83 1017.56 1017.27 1016.92 1016.57 1016.19 1015.47 1015.28 1014.64 1014.60 1014.60 1014.51 1014.42 1014.32 1014.00 1013.70 1013.52 1013.31 1013.36 1013.33 1013.74 1013.80 1013.72 1014.01 1014.16 1014.49 1014.55 1014.66 1014.83 1015.09 1015.85 1016.85 1017.75 1018.36 1018.82 1019.62 1020.16
1018.34 1018.48 1018.57 1018.48 1018.37 1018.38 1018.27 1018.14 1017.86 1017.54 1017.27 1016.89 1016.52 1016.21 1015.99 1015.20 1014.36 1014.33 1014.47 1014.58 1014.28 1014.25 1014.04 1014.00 1013.81 1013.76 1013.76 1013.83 1014.18 1014.25 1014.19 1014.25 1014.44 1014.72 1014.87 1015.20 1015.26 1015.56 1015.97 1016.93 1018.04 1018.74 1019.35 1019.99 1020.42
1018.08 1018.30 1018.40 1018.39 1018.32 1018.18 1018.16 1018.05 1017.89 1017.60 1017.26 1016.88 1016.63 1016.22 1015.53 1014.68 1014.11 1014.36 1014.39 1014.47 1014.49 1014.35 1014.21 1014.27 1014.22 1014.19 1014.15 1014.21 1014.59 1014.63 1014.75 1014.52 1014.49 1014.84 1015.15 1015.46 1015.76 1015.47 1016.27 1017.07 1018.12 1018.86 1019.58 1020.25 1020.62
1017.86 1018.08 1018.23 1018.19 1018.20 1018.11 1017.98 1017.92 1017.80 1017.60 1017.25 1016.85 1016.60 1016.21 1015.21 1014.55 1014.29 1014.48 1014.42 1014.58 1014.65 1014.62 1014.53 1014.60 1014.52 1014.51 1014.65 1014.87 1014.91 1014.88 1014.87 1014.71 1013.86 1014.68 1015.67 1016.09 1015.57 1015.08 1016.16 1017.19 1018.12 1018.92 1019.62 1020.28 1020.81
1017.66 1017.90 1018.10 1018.12 1018.07 1018.02 1017.90 1017.69 1017.50 1017.38 1017.13 1016.80 1016.39 1016.09 1015.08 1014.75 1014.56 1014.26 1014.26 1014.35 1014.72 1014.87 1014.97 1014.88 1014.75 1014.87 1015.22 1015.22 1015.12 1014.83 1014.71 1014.57 1014.63 1014.76 1015.69 1016.37 1015.96 1016.06 1016.45 1017.14 1017.97 1018.58 1019.39 1019.94 1020.67
1017.27 1017.68 1017.88 1018.04 1018.02 1017.96 1017.78 1017.44 1017.00 1017.16 1016.83 1016.44 1016.17 1016.29 1014.80 1014.62 1014.65 1014.55 1014.58 1014.52 1014.72 1015.09 1015.29 1015.25 1015.17 1015.28 1015.33 1015.29 1014.96 1014.55 1014.76 1014.43 1014.44 1014.99 1015.45 1016.14 1015.98 1016.21 1016.51 1016.94 1017.45 1018.01 1018.80 1019.65 1020.43
1016.77 1017.29 1017.63 1017.81 1017.88 1017.90 1017.81 1017.35 1017.29 1017.07 1016.42 1015.01 1014.49 1014.03 1014.20 1014.90 1014.83 1014.77 1014.68 1014.80 1014.89 1015.26 1015.37 1015.39 1015.43 1014.91 1014.77 1014.83 1014.52 1014.35 1014.57 1014.63 1014.16 1014.76 1015.28 1015.45 1015.46 1015.33 1015.71 1016.43 1016.84 1017.28 1018.03 1019.14 1020.08
1016.24 1016.86 1017.21 1017.54 1017.75 1017.84 1017.76 1016.68 1016.41 1016.63 1015.67 1014.29 1013.90 1013.79 1013.90 1014.21 1014.66 1014.80 1014.82 1014.99 1015.06 1015.09 1015.24 1015.73 1014.95 1014.47 1014.47 1014.36 1014.52 1014.59 1014.82 1014.90 1014.71 1015.04 1015.50 1015.36 1015.03 1014.59 1014.75 1014.92 1015.33 1016.07 1017.04 1018.30 1019.80
1015.76 1016.40 1016.70 1017.20 1017.52 1017.84 1017.21 1016.33 1015.95 1015.92 1015.67 1013.18 1012.61 1012.56 1013.15 1013.93 1013.77 1014.21 1014.86 1014.56 1014.72 1014.99 1014.84 1014.63 1014.18 1013.86 1014.33 1014.45 1014.69 1014.70 1014.90 1015.11 1015.36 1015.59 1015.80 1015.93 1015.09 1014.41 1013.66 1013.61 1014.34 1015.10 1016.10 1017.40 1018.94
1014.80 1015.49 1016.10 1016.71 1017.78 1016.91 1016.59 1015.88 1015.83 1015.98 1015.38 1012.14 1011.53 1011.01 1012.06 1013.12 1013.38 1013.24 1013.69 1014.01 1014.50 1014.49 1014.76 1014.41 1014.07 1014.35 1014.33 1014.47 1014.91 1015.10 1014.78 1015.21 1015.72 1016.34 1016.43 1016.09 1014.82 1013.72 1013.03 1013.00 1013.60 1014.31 1015.42 1016.79 1018.35
1013.88 1014.70 1015.07 1015.45 1015.13 1015.94 1015.15 1015.36 1015.69 1016.10 1015.04 1010.62 1011.03 1011.72 1011.64 1012.39 1012.56 1013.73 1013.81 1013.96 1013.83 1014.03 1014.13 1013.76 1013.87 1014.25 1014.41 1014.26 1014.81 1015.28 1015.24 1015.60 1016.19 1016.78 1016.94 1016.75 1016.01 1012.63 1012.47 1012.56 1012.69 1013.42 1014.96 1016.36 1017.74
1013.50 1013.89 1014.48 1015.08 1015.18 1015.10 1014.73 1015.38 1015.93 1016.23 1012.46 1010.75 1011.47 1011.80 1012.36 1012.49 1013.25 1014.15 1014.36 1014.25 1013.88 1013.97 1013.89 1013.97 1014.22 1014.18 1014.19 1014.78 1014.92 1015.47 1016.21 1016.78 1017.29 1017.75 1017.23 1016.56 1015.94 1012.30 1011.82 1011.18 1011.43 1013.15 1014.67 1015.99 1017.53
1013.31 1013.40 1013.10 1013.65 1013.79 1014.66 1014.69 1015.40 1016.46 1014.53 1009.64 1009.76 1010.71 1011.47 1011.80 1012.26 1013.34 1013.80 1014.18 1014.14 1013.53 1014.05 1013.79 1014.25 1014.11 1014.24 1014.46 1015.17 1015.55 1015.67 1016.69 1017.57 1018.25 1018.60 1016.87 1015.68 1015.11 1011.99 1010.99 1010.72 1011.21 1012.33 1014.04 1015.66 1017.23
1012.91 1012.90 1012.49 1013.04 1013.62 1014.12 1014.79 1014.86 1014.09 1011.27 1009.59 1008.56 1009.28 1010.59 1011.15 1011.72 1012.81 1013.50 1013.85 1013.76 1013.22 1012.61 1012.60 1013.22 1013.33 1013.37 1013.94 1013.59 1014.70 1015.82 1016.13 1017.13 1017.69 1018.07 1017.12 1016.01 1014.00 1011.71 1011.34 1011.33 1011.36 1011.95 1013.60 1015.37 1016.89
1012.58 1012.60 1012.08 1012.14 1013.05 1013.67 1013.57 1012.22 1011.14 1008.57 1008.46 1009.30 1009.78 1010.18 1010.71 1011.35 1011.94 1013.06 1012.93 1011.90 1011.17 1011.43 1011.57 1011.63 1012.23 1012.26 1013.03 1013.76 1014.38 1015.77 1016.13 1015.67 1017.20 1018.07 1017.62 1015.14 1013.03 1011.57 1011.68 1012.02 1012.42 1012.92 1014.03 1015.18 1016.61
1012.19 1012.03 1010.67 1010.89 1012.12 1012.56 1011.50 1010.64 1008.98 1007.95 1007.27 1007.53 1007.83 1008.31 1009.13 1010.42 1011.49 1011.84 1011.71 1009.83 1010.02 1009.96 1010.22 1010.57 1011.70 1012.78 1013.89 1014.14 1014.50 1014.95 1014.98 1016.31 1017.41 1018.17 1016.73 1013.84 1012.27 1011.04 1011.56 1011.82 1012.65 1013.13 1013.71 1014.82 1016.16
1012.09 1011.37 1009.26 1010.00 1011.41 1010.68 1009.33 1009.16 1007.77 1007.97 1007.39 1007.56 1006.90 1007.31 1007.46 1008.83 1010.06 1010.18 1009.09 1008.23 1008.49 1009.04 1010.16 1010.84 1011.55 1013.84 1014.28 1014.05 1013.54 1014.92 1014.86 1015.17 1015.70 1016.24 1015.36 1013.56 1010.49 1008.88 1009.22 1010.01 1011.25 1012.42 1013.40 1014.33 1015.47
1011.49 1010.27 1008.80 1009.65 1010.01 1008.69 1008.53 1007.28 1008.45 1007.85 1007.33 1006.77 1006.19 1006.30 1006.35 1007.27 1008.24 1008.44 1007.91 1007.19 1007.18 1008.00 1009.47 1009.86 1011.52 1012.92 1012.96 1012.61 1012.87 1013.02 1013.56 1014.26 1014.87 1015.11 1014.21 1013.45 1007.89 1008.96 1009.15 1009.17 1010.40 1011.66 1012.68 1013.76 1014.86
1010.60 1009.50 1008.63 1008.60 1007.86 1007.73 1008.07 1007.82 1008.11 1007.35 1006.74 1006.59 1006.03 1005.50 1006.04 1006.10 1006.73 1006.53 1006.65 1006.71 1007.01 1007.69 1008.33 1009.50 1011.16 1012.63 1012.87 1013.42 1013.34 1013.00 1012.74 1012.90 1013.55 1013.64 1011.67 1013.40 1007.65 1009.33 1009.55 1009.66 1010.30 1011.39 1012.41 1013.38 1014.50
1011.06 1009.20 1008.46 1008.35 1006.70 1007.21 1007.31 1006.95 1007.13 1006.84 1006.62 1006.41 1005.81 1006.03 1005.85 1005.80 1005.48 1005.35 1005.97 1006.43 1006.68 1007.44 1008.27 1008.79 1010.13 1010.34 1009.98 1010.08 1010.81 1012.12 1011.85 1012.01 1012.55 1012.06 1011.63 1009.01 1008.98 1009.46 1009.64 1010.20 1010.77 1011.19 1011.92 1012.93 1013.90
1010.36 1008.63 1007.54 1006.80 1006.90 1006.77 1006.81 1006.29 1006.22 1006.25 1005.99 1005.97 1005.64 1005.69 1006.00 1005.96 1005.85 1004.83 1006.01 1007.06 1007.40 1007.88 1008.61 1009.06 1009.72 1010.09 1009.29 1009.73 1010.19 1010.55 1010.61 1011.01 1010.91 1009.39 1010.61 1006.46 1008.45 1008.24 1008.89 1009.55 1009.82 1010.37 1011.64 1012.57 1013.39
1009.34 1008.73 1008.42 1007.54 1006.88 1006.70 1006.44 1005.79 1005.92 1005.86 1005.78 1005.11 1005.00 1005.00 1005.92 1005.34 1004.91 1004.59 1005.52 1006.45 1006.98 1008.36 1008.93 1009.28 1009.24 1009.80 1009.19 1009.56 1009.96 1010.07 1009.91 1009.64 1009.76 1009.55 1009.15 1007.90 1005.92 1007.54 1007.40 1007.99 1009.21 1010.10 1011.12 1011.90 1012.48
1008.55 1008.81 1008.84 1007.58 1007.15 1006.69 1006.02 1005.89 1005.97 1006.08 1005.49 1004.89 1004.95 1005.22 1004.65 1003.87 1003.95 1004.72 1005.15 1005.82 1006.30 1007.45 1008.84 1009.76 1010.22 1010.57 1009.14 1009.88 1010.34 1009.79 1006.29 1008.63 1008.25 1008.16 1007.91 1007.50 1003.97 1007.44 1007.76 1008.23 1008.76 1009.62 1010.56 1011.50 1012.38
Thickness
5662 5664 5667 5669 5674 5678 5681 5684 5687 5691 5696 5701 5705 5709 5714 5719 5727 5731 5733 5735 5739 5741 5743 5748 5748 5750 5751 5743 5744 5745 5714 5712 5730 5730 5724 5732 5726 5734 5735 5724 5717 5714 5707 5704 5707
5655 5658 5662 5665 5668 5673 5677 5681 5685 5690 5694 5699 5703 5708 5713 5717 5725 5730 5731 5734 5737 5738 5739 5737 5739 5743 5736 5736 5736 5727 5714 5718 5734 5737 5730 5728 5729 5724 5722 5717 5706 5702 5703 5706 5706
5649 5652 5657 5659 5663 5668 5673 5677 5683 5687 5691 5695 5700 5706 5711 5715 5718 5723 5730 5732 5733 5734 5737 5738 5739 5736 5730 5732 5730 5730 5712 5726 5728 5727 5730 5726 5724 5732 5720 5711 5707 5706 5698 5700 5699
5643 5646 5651 5656 5659 5663 5668 5672 5677 5683 5687 5692 5697 5704 5710 5715 5699 5723 5726 5729 5729 5730 5732 5732 5730 5724 5720 5717 5725 5708 5723 5723 5723 5721 5722 5718 5725 5718 5718 5702 5705 5703 5701 5697 5691
5638 5641 5644 5650 5654 5657 5661 5665 5671 5677 5682 5688 5694 5699 5709 5707 5712 5720 5723 5725 5726 5727 5725 5724 5720 5722 5711 5719 5716 5710 5717 5717 5718 5714 5715 5714 5711 5711 5709 5701 5699 5697 5695 5689 5684
5633 5635 5639 5643 5648 5650 5655 5660 5666 5672 5677 5683 5689 5694 5698 5692 5715 5717 5719 5719 5723 5721 5721 5721 5717 5719 5713 5712 5707 5708 5711 5711 5711 5709 5710 5702 5705 5708 5709 5699 5692 5691 5687 5683 5681
5627 5629 5633 5637 5641 5646 5650 5654 5659 5665 5670 5677 5682 5688 5692 5697 5711 5712 5714 5715 5717 5717 5713 5716 5717 5711 5712 5705 5706 5705 5693 5700 5703 5703 5701 5700 5690 5697 5702 5696 5689 5686 5680 5678 5677
5620 5622 5625 5631 5635 5639 5644 5648 5652 5657 5663 5670 5675 5681 5684 5700 5705 5706 5708 5707 5710 5712 5711 5712 5713 5707 5701 5701 5697 5690 5693 5678 5707 5697 5690 5687 5681 5706 5696 5689 5684 5680 5675 5673 5672
5613 5615 5618 5622 5627 5632 5637 5642 5647 5651 5656 5663 5670 5673 5678 5694 5693 5701 5703 5699 5699 5701 5702 5704 5703 5695 5691 5680 5676 5683 5667 5676 5679 5692 5682 5673 5679 5688 5689 5685 5680 5677 5674 5672 5667
5607 5608 5610 5613 5618 5623 5628 5635 5642 5644 5650 5656 5662 5658 5677 5682 5684 5689 5692 5695 5689 5687 5685 5686 5683 5675 5675 5668 5653 5666 5667 5679 5677 5678 5679 5667 5668 5678 5679 5679 5679 5676 5674 5669 5664
5601 5601 5603 5606 5610 5614 5619 5627 5632 5634 5641 5656 5663 5672 5673 5673 5679 5677 5683 5680 5681 5677 5665 5672 5661 5661 5671 5673 5679 5676 5672 5666 5688 5675 5672 5668 5670 5680 5677 5674 5675 5676 5672 5667 5663
5593 5594 5595 5598 5601 5605 5610 5621 5625 5624 5629 5652 5657 5663 5669 5669 5663 5667 5674 5664 5663 5658 5663 5654 5653 5675 5679 5679 5672 5667 5660 5657 5671 5664 5662 5664 5664 5680 5677 5682 5683 5681 5674 5668 5656
5583 5585 5587 5589 5592 5597 5605 5614 5617 5620 5615 5649 5659 5659 5660 5660 5661 5660 5660 5662 5656 5652 5657 5653 5670 5679 5669 5667 5659 5659 5651 5652 5652 5651 5652 5645 5645 5666 5684 5687 5686 5685 5678 5669 5657
5578 5576 5578 5579 5581 5591 5599 5605 5607 5609 5597 5639 5651 5660 5657 5656 5648 5664 5664 5659 5652 5649 5650 5652 5668 5660 5661 5654 5652 5638 5659 5652 5649 5635 5617 5641 5615 5664 5681 5683 5680 5685 5671 5663 5655
5573 5574 5574 5577 5585 5586 5600 5597 5597 5595 5567 5647 5646 5648 5654 5650 5652 5642 5652 5649 5646 5646 5650 5649 5649 5643 5642 5653 5651 5641 5648 5646 5641 5625 5618 5625 5610 5659 5678 5678 5682 5679 5666 5659 5652
5564 5567 5566 5567 5571 5583 5588 5584 5581 5568 5581 5622 5622 5627 5627 5637 5631 5627 5631 5641 5647 5641 5643 5643 5643 5646 5648 5640 5644 5635 5630 5627 5621 5613 5588 5623 5623 5638 5672 5683 5689 5671 5661 5653 5644
5556 5559 5562 5566 5576 5568 5574 5564 5545 5546 5641 5630 5617 5618 5623 5625 5620 5622 5619 5619 5627 5616 5618 5629 5628 5634 5636 5624 5627 5629 5615 5592 5579 5573 5589 5631 5618 5651 5674 5683 5684 5672 5659 5648 5638
5543 5549 5557 5558 5560 5561 5557 5546 5538 5593 5617 5635 5623 5610 5609 5615 5611 5610 5609 5611 5623 5631 5629 5614 5613 5629 5631 5638 5617 5605 5611 5584 5581 5582 5593 5602 5607 5643 5661 5661 5670 5669 5657 5645 5632
5526 5536 5544 5556 5552 5549 5549 5541 5560 5611 5617 5608 5599 5595 5597 5601 5606 5599 5605 5622 5633 5630 5625 5624 5621 5633 5631 5629 5623 5600 5592 5625 5590 5556 5565 5605 5626 5648 5640 5645 5649 5646 5642 5637 5626
5513 5522 5544 5551 5546 5542 5548 5544 5578 5603 5610 5606 5598 5607 5594 5590 5587 5591 5598 5632 5631 5637 5637 5633 5618 5615 5606 5614 5611 5605 5613 5584 5576 5556 5564 5608 5621 5635 5629 5636 5631 5637 5637 5631 5621
5495 5505 5544 5543 5533 5538 5546 5550 5584 5588 5596 5586 5600 5600 5608 5589 5582 5586 5613 5633 5635 5631 5626 5620 5611 5586 5591 5593 5606 5588 5587 5594 5596 5578 5572 5584 5622 5658 5653 5647 5636 5636 5631 5626 5617
5480 5497 5531 5528 5524 5539 5543 5572 5562 5569 5580 5588 5598 5598 5602 5598 5578 5586 5600 5624 5634 5629 5609 5616 5598 5575 5585 5603 5602 5603 5592 5589 5572 5574 5585 5579 5640 5646 5641 5646 5637 5631 5627 5618 5609
5471 5494 5512 5514 5526 5534 5538 5548 5548 5559 5569 5574 5582 5599 5596 5593 5586 5596 5602 5620 5620 5615 5609 5603 5577 5567 5573 5575 5576 5582 5592 5596 5592 5567 5599 5568 5634 5620 5628 5632 5627 5621 5614 5608 5599
5452 5477 5493 5496 5522 5527 5535 5543 5540 5553 5557 5567 5577 5576 5580 5581 5596 5597 5595 5603 5607 5607 5602 5599 5577 5583 5595 5604 5593 5570 5579 5586 5582 5575 5579 5609 5621 5613 5613 5609 5610 5607 5604 5598 5592
5440 5469 5488 5499 5507 5520 5527 5538 5539 5540 5551 5559 5561 5562 5565 5562 5572 5592 5588 5575 5578 5584 5586 5582 5570 5579 5596 5599 5591 5579 5576 5577 5576 5600 5575 5629 5604 5621 5610 5601 5606 5605 5593 5590 5585
5434 5453 5460 5478 5497 5505 5513 5522 5529 5539 5540 5547 5552 5566 5557 5559 5571 5586 5584 5578 5574 5566 5566 5565 5566 5571 5579 5576 5575 5572 5578 5576 5574 5580 5585 5603 5615 5617 5619 5612 5598 5596 5588 5583 5577
5425 5428 5436 5460 5472 5481 5490 5507 5516 5525 5534 5547 5550 5552 5554 5572 5586 5585 5579 5576 5575 5564 5548 5543 5539 5540 5563 5560 5551 5545 5595 5578 5581 5581 5586 5579 5632 5601 5599 5594 5591 5585 5579 5572 5566